OneWeb SL0060

operational
NORAD ID: 45455 Int'l Des: 2020-020 Owner: ONEWEB Country: UK Constellation: oneweb
LEOCIRCULARPOLARONEWEB_TYPE

About OneWeb SL0060

Description loading...

Live Position

Loading 3D Globe...

Upcoming Passes

Altitude History

Altitude vs Time

uPlot chart will show altitude changes over time

Two-Line Element Set

1 45455U 20020AH 25348.76366710 -.00000461 00000-0 -13358-2 0 9990
2 45455 87.8852 57.7968 0002780 95.5783 264.5662 13.11417492278370
Epoch: Dec 14, 2025 • Age: 19 hours

Current Status

Altitude 1220.2 km
Velocity 7.24 km/s
Sub-Earth Point 1.84°N, 50.05°W
Launch Date Mar 21, 2020
Age 5.7 years
Type internet

Technical Details

Classification Payload
Mass 148.00 kg
Dry Mass 140.00 kg
Total Mass 148.00 kg
Length 1.30 m
Diameter 1.00 m
Span 5.00 m
Shape Trapezoid+2 pan
Manufacturer ONEWUS
Bus Type ARROW
Phase Status In Orbit
Owner/State ONEWEB/UK

Large Constellations

Loading constellations...